Regional Weather Roundup
Issued by NWS Austin/San Antonio, TX

Home | Current Version | Previous Version | Text Only | Print | Product List | Glossary On
Versions: 1 2 3 4 5 6 7 8 9 10 11 12 13 14 15 16 17 18 19 20 21 22 23 24 25 26 27 28 29 30 31 32 33 34 35 36 37 38 39 40 41 42 43 44 45 46 47 48 49 50
000
ASUS44 KEWX 231902
RWREWX
SOUTH TEXAS REGIONAL WEATHER ROUNDUP
NATIONAL WEATHER SERVICE AUSTIN/SAN ANTONIO TX
200 PM CDT SUN JUL 23 2017

NOTE: "FAIR" INDICATED FEW OR NO CLOUDS BELOW 12,000 FEET WITH NO
SIGNIFICANT WEATHER AND/OR OBSTRUCTIONS TO VISIBILITY.

* - THESE STATIONS ARE NOT NWS OR FAA STATIONS...AND ARE NOT SUBJECT
    TO NWS AND FAA QUALITY CONTROL.

TXZ171-172-183>190-232000-
TEXAS HILL COUNTRY AND EDWARDS PLATEAU

CITY           SKY/WX    TMP DP  RH WIND       PRES   REMARKS
JUNCTION       SUNNY     97  64  33 SW7       29.94F HX  99
*LLANO           N/A    N/A N/A N/A MISG        N/A
BURNET         PTSUNNY   93  68  43 E10       29.94F HX  97
*HORSESHOE BAY PTSUNNY   97  66  35 SE7       29.90F HX 100
*KERRVILLE     SUNNY     97  72  44 SE8       29.95F HX 105
*FREDERICKSBRG PTSUNNY   94  61  33 S7        29.95F HX  94
*ROCKSPRINGS   MOSUNNY   95  63  34 CALM      30.02F HX  96
*BOERNE STAGE  MOSUNNY   91  64  40 S9        29.96F HX  93
*CASTROVILLE   SUNNY     99  64  31 S8        29.93F HX 102
HONDO          SUNNY     98  65  33 MISG      29.93F HX 101
*UVALDE        SUNNY     95  67  39 CALM      29.93F HX  99
DEL RIO        SUNNY     97  64  33 SE9       29.90F HX  99
LAUGHLIN AFB   NOT AVBL
CARRIZO SPRGS  SUNNY     99  66  34 SE5       29.89F HX 102
*EAGLE PASS    NOT AVBL
$$

TXZ173-191>194-202-209-217>225-228-232000-
CENTRAL AND SOUTH CENTRAL TEXAS

CITY           SKY/WX    TMP DP  RH WIND       PRES   REMARKS
GEORGETOWN     TSTM      97  70  41 SW13      29.94S HX 103
AUSTIN/BERGSTM MOSUNNY   98  70  40 VRB6      29.90F HX 105
AUSTIN/MABRY   MOSUNNY   99  70  38 VRB6      29.91F HX 106
*AUSTIN/EXEC     N/A     95  72  46 S5        29.92F HX 103
*LAGO VISTA    PTSUNNY   94  66  39 NW3       29.94F THUNDER HX  97
SAN MARCOS     SUNNY     97  68  38 SW9G20    29.93F HX 101
NEW BRAUNFELS  SUNNY     97  70  41 MISG      29.91F HX 103
RANDOLPH AFB   MOSUNNY   96  67  38 S3        29.92F HX 100
PT SAN ANTONIO MOSUNNY   96  69  40 SE7       29.90F HX 101
SAN ANTONIO    MOSUNNY   96  68  39 SE12      29.93F HX 101
STINSON FIELD  SUNNY    100  67  33 SE8       29.90F HX 105
*LA GRANGE     SUNNY     97  72  44 S7        29.90F HX 105
*GIDDINGS      SUNNY     96  65  36 SW6       29.92F HX  98
*GONZALES      SUNNY     97  73  45 SE7       29.91F HX 107
$$

TXZ163>164-176>182-195>201-210>213-226-227-235-232000-
SOUTHEAST TEXAS

CITY           SKY/WX    TMP DP  RH WIND       PRES   REMARKS
COLLEGE STN    SUNNY     96  68  39 S12       29.91F HX 101
*BRYAN         MOSUNNY   96  71  43 S7G16     29.92F HX 103
*CALDWELL      NOT AVBL
*CROCKETT      PTSUNNY   91  77  62 SW8       29.96F HX 105
*BRENHAM       MOSUNNY   96  69  41 S10       29.93F HX 102
HUNTSVILLE     SUNNY     93  70  46 VRB5      29.93F HX  99
CONROE         MOSUNNY   85  72  65 SE8       29.95S THUNDER HX  91
HOUSTON BUSH   PTSUNNY   92  73  53 SW9       29.93F HX 100
HOUSTON HOBBY  PTSUNNY   95  74  50 S12       29.93F HX 105
*HOUSTON SW AP MOSUNNY   92  74  55 SW8       29.94F HX 102
PEARLAND       MOSUNNY   93  72  50 SW7       29.95F HX 101
HOUSTON HOOKS  MOSUNNY   93  73  52 W12       29.93F HX 102
ELLINGTON FLD  PTSUNNY   93  75  55 SW10      29.96F HX 104
SUGAR LAND     PTSUNNY   93  74  53 SW9G17    29.93F HX 103
*HOUSTON EXEC  MOSUNNY   93  75  55 SW12      29.94F HX 104
*CLEVELAND MUN PTSUNNY   93  75  54 SW9       29.94F HX 104
*WHARTON       SUNNY     94  67  40 S13       29.94F HX  98
*COLUMBUS      FAIR      94  67  40 SW9       29.93F HX  98
*EAGLE LAKE    PTCLDY    95  73  48 SW12      29.93F HX 104
$$

TXZ214>216-236>238-232000-
THE UPPER TEXAS COAST

CITY           SKY/WX    TMP DP  RH WIND       PRES   REMARKS
*ORANGE        CLOUDY    80  74  80 SW3       29.98S THUNDER
PORT ARTHUR    CLOUDY    79  74  84 S5        29.94F
GALVESTON      MOSUNNY   90  77  65 S18G25    29.96F HX 103
ANGLETON       MOSUNNY   93  75  55 S14G22    29.95F HX 104
*BAY CITY      PTSUNNY   92  74  56 SW16      29.95F HX 102
PALACIOS       SUNNY     89  74  60 S16       29.95F HX  98
$$

TXZ229>234-239>247-232000-
TEXAS COASTAL BEND AND RIO GRANDE PLAINS

CITY           SKY/WX    TMP DP  RH WIND       PRES   REMARKS
VICTORIA       MOSUNNY   95  70  44 S15G23    29.93F HX 101
*BEEVILLE      MOSUNNY   97  70  41 S10G16    29.91F HX 104
ROCKPORT       SUNNY     93  73  52 S12G24    29.93F HX 102
*PORT ARANSAS  SUNNY     89  74  63 S15       29.94F HX  98
*PORT LAVACA   MOSUNNY   91  73  55 S13       29.94F HX  98
*INGLESIDE     SUNNY     92  76  59 MISG      29.93F HX 104
CORPUS CHRISTI MOSUNNY   95  74  50 S14G22    29.91F HX 105
CORPUS NAS     MOSUNNY   93  78  61 S22       29.93S HX 108
*ROBSTOWN      MOSUNNY   97  70  41 S12G18    29.91F HX 104
ALICE          SUNNY     98  68  37 S15       29.90F HX 103
KINGSVILLE NAS SUNNY    102  68  33 S16G28    29.90F HX 108
COTULLA        SUNNY     99  62  29 VRB3      29.89F HX 100
*FAITH RANCH   SUNNY     99  64  32 SE9G16    29.89F HX 101
LAREDO         SUNNY     98  70  40 E6        29.91F HX 105
$$

TXZ248>255-232000-
DEEP SOUTH TEXAS

CITY           SKY/WX    TMP DP  RH WIND       PRES   REMARKS
BROWNSVILLE    MOSUNNY   92  73  53 S22G29    29.93F HX 100
PORT ISABEL    MOSUNNY   95  73  48 S22G35    29.92F HAZE    HX 104
*SOUTH PADRE   NOT AVBL
HARLINGEN      SUNNY     97  71  42 S23G32    29.90F HX 104
*HEBBRONVILLE  SUNNY     96  63  33 SE10G21   29.91F HX  97
MCALLEN        SUNNY    100  67  33 S21G30    29.88F HX 105
*WESLACO       SUNNY     96  71  43 S22G29    29.89F HX 103
FALFURRIAS     SUNNY     98  61  29 S16G22    29.90F HX  99
EDINBURG       SUNNY    101  62  27 S14G26    29.89F HX 103
*ZAPATA        SUNNY     98  65  33 S7G17     29.87F HX 100
$$

TXZ213>215-236>238-242>244-246-247-251-254-255-232000-
CMAN STATIONS

STATION/POSITION TIME  TEMP    WIND        PRES    WAVE
                       AIR SEA DIR/SP/G            HT/PER
                 (UTC) (F)     (DEG/KT/KT) (MB)    (FT/S)
SABINE PASS      1830   88 88  220/  8/ 18 1016.2
SEA RIM ST PARK  1800   87     230/ 15/ 18 1015.2
NORTH JETTY/GLS  1830      86  210/ 18/ 23 1014.2
EAGLE POINT      1830   90 88  240/  9/ 14 1014.3
MORGANS POINT    1830   91 88  210/  9/ 12 1013.9
MISSION/ARANSAS  1800          160/ 18     1015.0
PORT O`CONNOR    1824   87     200/ 15/ 20 1014.0
PORT ARANSAS     1800   85 86  170/ 19/ 22 1014.2
MALAQUITE BEACH  1824   85 86  150/ 21/ 25 1013.1
BAFFIN BAY       1824   86 88              1013.6
PORT ISABEL      1824   89 85              1014.1
$$



USA.gov is the U.S. government's official web portal to all federal, state and local government web resources and services.